Regional Weather Roundup
Issued by NWS

Home | Current Version | Previous Version | Graphics & Text | Print | Product List | Glossary On
Versions: 1 2 3 4 5 6 7 8 9 10 11 12 13 14 15 16 17 18 19 20 21 22 23 24 25 26 27 28 29 30 31 32 33 34 35 36 37 38 39 40 41 42 43 44 45 46 47 48 49 50
000
ASUS43 KDTX 270310
RWRMI
MICHIGAN HOURLY REGIONAL WEATHER ROUNDUP
NATIONAL WEATHER SERVICE DETROIT/PONTIAC MI
1100 PM EDT TUE MAY 26 2015

NOTE: "FAIR" INDICATES FEW OR NO CLOUDS BELOW 12,000 FEET WITH NO
SIGNIFICANT WEATHER AND/OR OBSTRUCTION TO VISIBILITY.

MIZ047>049-052>055-059>063-066>070-074>076-081>083-270400-
SOUTHEAST LOWER MICHIGAN

CITY           SKY/WX    TMP DP  RH WIND       PRES   REMARKS
ADRIAN         MOCLDY    68  65  90 S9        29.92R
ALMA           CLOUDY    67  63  86 S9        29.84R
ANN ARBOR      MOCLDY    68  65  90 S8        29.91S
BAD AXE        CLOUDY    67  63  86 S9        29.85F
CARO           CLOUDY    68  63  84 S12       29.85R
DETROIT        CLOUDY    70  66  87 S12       29.91F
FLINT          MOCLDY    72  64  76 S10       29.87R
GROSSE ILE     PTCLDY    70  64  83 S10       29.91F
HILLSDALE      LGT RAIN  70  69  97 SW8       29.92R
HOWELL         PTCLDY    68  65  93 S8        29.89S

CITY           SKY/WX    TMP DP  RH WIND       PRES   REMARKS
JACKSON        MOCLDY    69  65  86 S12       29.89S
LAMBERTVILLE   CLOUDY    70  64  83 S6        29.93S
LANSING        MOCLDY    68  62  81 S10       29.87R
LAPEER         RAIN      69  66  89 S7        29.88F
MASON          LGT RAIN  65  63  91 SW5       29.89R
MONROE         MOCLDY    70  64  83 SW9       29.91S
MT. CLEMENS    MOCLDY    70  66  88 SW8       29.89S
PONTIAC        MOCLDY    68  66  93 S8        29.89F
PORT HOPE        N/A    N/A N/A N/A SW8       29.81F
PORT HURON     CLOUDY    68  64  88 S12G18    29.91S
TRI CITIES     MOCLDY    69  62  78 S13       29.84R
MIDLAND        CLOUDY    68  61  77 S8        29.82S
TROY           CLOUDY    69  67  93 SW7       29.92F
SAGINAW HB     MOCLDY    68  61  77 S13       29.84S
$$
MIZ043>046-050>051-056>058-064>065-071>073-077>080-270400-
SOUTHWEST LOWER MICHIGAN

CITY           SKY/WX    TMP DP  RH WIND       PRES   REMARKS
BATTLE CREEK   MOCLDY    70  61  73 SW16      29.88R
BENTON HARBOR  PTCLDY    68  60  75 SW13G18   29.87R
BIG RAPIDS     CLEAR     66  62  86 S9        29.79R
COLDWATER      MOCLDY    69  61  76 SW13G20   29.91R
FREMONT        FAIR      65  60  83 SW10G18   29.80R
HOLLAND        CLOUDY    67  59  75 SW21G26   29.85R
GRAND RAPIDS   PTCLDY    68  62  81 SW12      29.84R
IONIA          CLOUDY    69  63  79 S10       29.84R
KALAMAZOO      PTCLDY    70  59  68 SW13      29.89R
LUDINGTON      PTCLDY    64  58  81 SW21G31   29.75R
MARSHALL       LGT RAIN  68  66  92 SW5       29.89R
MOUNT PLEASANT MOCLDY    66  63  89 S8        29.81S
MUSKEGON       MOCLDY    63  57  81 SW17G26   29.81R
SOUTH HAVEN    CLOUDY    68  59  73 SW12G18   29.86R
$$
MIZ016>042-270400-
NORTHERN LOWER MICHIGAN

CITY           SKY/WX    TMP DP  RH WIND       PRES   REMARKS
ALPENA         CLOUDY    68  66  93 S9        29.76F
BEAVER ISLAND  CLOUDY    62  61  97 SE5       29.71S
BELLAIRE       PTCLDY    67  64  88 S6        29.73S
CADILLAC       MOCLDY    65  61  89 S9        29.77S
CHARLEVOIX     PTCLDY    66  65  97 SE5       29.74S
FRANKFORT      MOCLDY    68  59  73 S10G17    29.71S
GAYLORD        MOCLDY    66  66 100 S8        29.76R
GRAYLING       MOCLDY    64  64 100 S6        29.79R
HARBOR SPRINGS MOCLDY    64  64  98 CALM      29.73R
HOUGHTON LAKE  PTCLDY    66  62  87 S12G23    29.80R
MANISTEE       PTCLDY    66  59  77 S7        29.74R
OSCODA         CLOUDY    68  66  95 S12       29.80R
PELLSTON       CLOUDY    64  64 100 CALM      29.73R
ROGERS CITY    CLOUDY    67  66  95 S5        29.75S
TRAVERSE CITY  CLEAR     67  62  84 VRB5      29.70S
$$
MIZ007>008-015-270400-
EASTERN UPPER MICHIGAN

CITY           SKY/WX    TMP DP  RH WIND       PRES   REMARKS
KINROSS        CLOUDY    63  61  94 SE7       29.74S
MACKINAC ISLAN CLOUDY    58  58 100 E10G21    29.72F FOG
NEWBERRY       HVY RAIN  63  63  99 E13       29.71F
S. S. MARIE    CLOUDY    61  58  90 E5        29.74R
MUNISING         N/A     45  43  93 CALM      29.71S
$$
MIZ004>006-011>014-085-270400-
CENTRAL UPPER MICHIGAN

CITY           SKY/WX    TMP DP  RH WIND       PRES   REMARKS
MANISTIQUE     RAIN      61  60  97 SE12      29.70S
ESCANABA       CLOUDY    57  54  88 SE10      29.67S VSB 1/2
MENOMINEE      CLOUDY    55  54  94 E5        29.64F
SAWYER-GWINN   DRZL/FOG  48  47  96 E10       29.70F VSB 1/2
$$
MIZ001>003-009>011-084-270400-
WESTERN UPPER MICHIGAN

CITY           SKY/WX    TMP DP  RH WIND       PRES   REMARKS
IRON MOUNTAIN  LGT RAIN  62  61  96 SE9       29.65S FOG
HOUGHTON       LGT RAIN  50  48  93 NW7       29.73S VSB 1/4
COPPER HARBOR    N/A     42  41  96 CALM      29.74F
IRONWOOD       CLOUDY    46  46 100 CALM      29.73R
$$

ABBREVIATIONS USED IN REMARKS
   TC - TEMPERATURE IN CELSIUS
  WCI - WIND CHILL INDEX
   HX - HEAT INDEX
  VSB - VISIBILITY




USA.gov is the U.S. government's official web portal to all federal, state and local government web resources and services.